Regional Weather Roundup
Issued by NWS

Home | Current Version | Previous Version | Graphics & Text | Print | Product List | Glossary On
Versions: 1 2 3 4 5 6 7 8 9 10 11 12 13 14 15 16 17 18 19 20 21 22 23 24 25 26 27 28 29 30 31 32 33 34 35 36 37 38 39 40 41 42 43 44 45 46 47 48 49 50
000
ASUS45 KBOU 262210
RWRCO

WEATHER ROUNDUP FOR COLORADO
NATIONAL WEATHER SERVICE DENVER/BOULDER CO
400 PM MDT MON SEP 26 2016

NOTE: "FAIR" INDICATES FEW OR NO CLOUDS BELOW 12000 FEET WITH NO
SIGNIFICANT WEATHER AND/OR OBSTRUCTIONS TO VISIBILITY.

COZ001>005-013-030-031-262300-
...NORTHWEST COLORADO...

CITY           SKY/WX    TMP DP  RH WIND       PRES   REMARKS
CRAIG          FAIR      72  27  18 VRB5      30.39F
HAYDEN         FAIR      70  28  21 SW10      30.40F
MEEKER         FAIR      71  34  25 SW10      30.38F
MOUNT WERNER   NOT AVBL
STEAMBOAT SPGS FAIR      69  29  22 W9        30.40F
WALDEN           N/A     64  27  24 S5        30.48S
$$

COZ006>008-011-262300-
...WEST CENTRAL VALLEYS...

CITY           SKY/WX    TMP DP  RH WIND       PRES   REMARKS
GRAND JUNCTION FAIR      75  36  24 W9G17     30.30F
MONTROSE       FAIR      72  34  24 N7        30.35F
EAGLE          SUNNY     73  27  17 CALM      30.37F
RIFLE          FAIR      75  33  21 NW6       30.32F
DELTA          NOT AVBL
NUCLA          FAIR      73  27  17 NW5       30.37F
$$

COZ017>023-064>068-262300-
...SOUTHWEST COLORADO...

CITY           SKY/WX    TMP DP  RH WIND       PRES   REMARKS
DURANGO        FAIR      71  31  22 W9G17     30.37F
CORTEZ         FAIR      74  35  24 CALM      30.33F
PAGOSA SPRINGS FAIR      71  27  20 SW8       30.42F
TELLURIDE      FAIR      63  32  31 W15G22    30.51S
WOLF CREEK PAS FAIR      50  32  50 S14G20    30.70S
$$

COZ009-010-012-014-032>034-037-058>063-262300-
...CENTRAL COLORADO...

CITY           SKY/WX    TMP DP  RH WIND       PRES   REMARKS
ASPEN          FAIR      70  32  24 N10       30.42F
BUENA VISTA    FAIR      73  24  16 SE7       30.39F
COPPER MTN     FAIR      57  19  23 W8G22     30.69F
BERTHOUD PASS  FAIR      45  32  61 MISG      30.73S
COTTONWOOD PAS FAIR      70  21  16 E12       30.53F
GUNNISON       FAIR      70  26  19 VRB6      30.40F
KREMMLING      FAIR      73  18  12 N8        30.42F
LEADVILLE      FAIR      65  18  16 N14       30.51F
MONARCH PASS   FAIR      54  25  32 W8        30.79S
SALIDA         FAIR      75  19  12 E3        30.44F
SUNLIGHT       FAIR      54  32  43 NW8       30.66F
WILKERSON PASS FAIR      55  14  19 E3        30.67S
$$

COZ069>075-262300-
...SAN LUIS VALLEY/SANGRE DE CRISTO MOUNTAINS...

CITY           SKY/WX    TMP DP  RH WIND       PRES   REMARKS
ALAMOSA        FAIR      71  20  14 MISG      30.40F
LA VETA PASS   NOT AVBL
SAGUACHE       NOT AVBL
$$

COZ035-036-038>040-262300-
...NORTHERN COLORADO FRONT RANGE...

CITY           SKY/WX    TMP DP  RH WIND       PRES   REMARKS
DENVER INTL AP FAIR      74  29  19 E8        30.31F
DMNS CITY PARK   N/A     77  27  15 NE3       30.31S
AURORA         MOSUNNY   75  29  18 E3        30.32F
FRONT RANGE AP NOT AVBL
ERIE MUNI ARPT FAIR      76  24  14 CALM      30.30F
BOULDER MUN AP FAIR      75  30  19 NE8       30.30F
CENTENNIAL     FAIR      76  28  17 N9        30.32F
BROOMFIELD     NOT AVBL
FORT COLLINS   FAIR      75  32  20 SW7       30.28F
LONGMONT       FAIR      78  31  17 CALM      30.32F
$$

COZ041-046-047-076>085-087-088-262300-
...PIKES PEAK/PALMER DIVIDE AND SOUTHERN FOOTHILLS...

CITY           SKY/WX    TMP DP  RH WIND       PRES   REMARKS
COLO. SPRINGS  FAIR      74  25  16 SE9       30.35F
A. F. ACADEMY  FAIR      73  26  17 SE8       30.35F
SCHRIEVER AFB  NOT AVBL
ELLICOTT       NOT AVBL
FALCON         FAIR      72  24  16 SE3       30.40F
FORT CARSON    FAIR      75  28  17 E9        30.33F
LIMON          FAIR      76  30  18 N10       30.32F
MONUMENT HILL  FAIR      68  28  22 E9G16     30.40F
TRINIDAD       FAIR      74  30  19 SE8       30.33F
$$

COZ042>045-048>051-090-091-262300-
...NORTHEAST COLORADO...

CITY           SKY/WX    TMP DP  RH WIND       PRES   REMARKS
GREELEY ARPT   FAIR      75  34  22 NW3       30.30F
AKRON          FAIR      74  34  23 NW9       30.29F
BURLINGTON     FAIR      78  31  17 VRB7G20   30.27F
WRAY           NOT AVBL
STERLING       FAIR      77  37  24 N8        30.25F
HOLYOKE        FAIR      79  36  21 NW14G20   30.25F
FORT MORGAN    FAIR      78  31  17 NW7       30.28F
$$

COZ086-089-092>099-262300-
...SOUTHEAST COLORADO...

CITY           SKY/WX    TMP DP  RH WIND       PRES   REMARKS
PUEBLO         FAIR      77  29  17 SE8       30.27F
LA JUNTA       FAIR      77  31  18 SE3       30.27F
LAMAR          FAIR      79  34  19 VRB7      30.24F
SPRINGFIELD    NOT AVBL
$$



USA.gov is the U.S. government's official web portal to all federal, state and local government web resources and services.